TimeEDT,TemperatureF,Dew PointF,Humidity,Sea Level PressureIn,VisibilityMPH,Wind Direction,Wind SpeedMPH,Gust SpeedMPH,PrecipitationIn,Events,Conditions,WindDirDegrees,DateUTC
12:52 AM,60.1,55.0,83,30.15,10.0,Calm,Calm,-,0.00,Rain,Light Rain,0,2013-10-28 04:52:00
1:52 AM,57.9,55.0,90,30.14,10.0,SSW,3.5,-,0.00,,Overcast,200,2013-10-28 05:52:00
2:52 AM,57.9,55.0,90,30.14,10.0,WSW,3.5,-,N/A,,Overcast,240,2013-10-28 06:52:00
3:52 AM,57.0,55.0,93,30.15,10.0,Calm,Calm,-,N/A,,Overcast,0,2013-10-28 07:52:00
4:52 AM,55.9,55.0,97,30.15,9.0,NW,4.6,-,N/A,,Overcast,310,2013-10-28 08:52:00
5:52 AM,57.0,54.0,89,30.17,10.0,NW,5.8,-,N/A,,Overcast,320,2013-10-28 09:52:00
6:52 AM,57.0,54.0,89,30.19,10.0,WNW,4.6,-,N/A,,Overcast,290,2013-10-28 10:52:00
7:52 AM,55.9,54.0,93,30.22,6.0,Calm,Calm,-,0.02,Rain,Light Rain,0,2013-10-28 11:52:00
8:52 AM,57.9,55.0,90,30.23,8.0,Calm,Calm,-,0.02,,Overcast,0,2013-10-28 12:52:00
9:52 AM,59.0,55.9,90,30.25,8.0,Calm,Calm,-,0.00,Rain,Light Rain,0,2013-10-28 13:52:00
10:52 AM,61.0,53.1,75,30.27,9.0,Calm,Calm,-,0.00,,Overcast,0,2013-10-28 14:52:00
11:52 AM,62.1,55.0,78,30.27,9.0,Calm,Calm,-,N/A,,Mostly Cloudy,0,2013-10-28 15:52:00
12:52 PM,64.0,48.9,58,30.26,10.0,Calm,Calm,-,N/A,,Overcast,0,2013-10-28 16:52:00
1:52 PM,64.0,53.1,67,30.25,10.0,Calm,Calm,-,0.00,Rain,Light Rain,0,2013-10-28 17:52:00
2:52 PM,64.0,54.0,70,30.23,10.0,Calm,Calm,-,0.00,,Overcast,0,2013-10-28 18:52:00
3:52 PM,62.1,55.0,78,30.22,10.0,Calm,Calm,-,0.01,,Overcast,0,2013-10-28 19:52:00
4:52 PM,64.0,55.0,73,30.22,10.0,SSE,4.6,-,N/A,,Mostly Cloudy,150,2013-10-28 20:52:00
5:52 PM,63.0,55.0,75,30.23,10.0,Calm,Calm,-,N/A,,Mostly Cloudy,0,2013-10-28 21:52:00
6:52 PM,62.1,54.0,75,30.24,10.0,Calm,Calm,-,N/A,,Mostly Cloudy,0,2013-10-28 22:52:00
7:52 PM,63.0,53.1,70,30.25,10.0,Calm,Calm,-,N/A,,Mostly Cloudy,0,2013-10-28 23:52:00
8:52 PM,62.1,54.0,75,30.26,10.0,Calm,Calm,-,N/A,,Overcast,0,2013-10-29 00:52:00
9:52 PM,61.0,54.0,78,30.27,10.0,East,4.6,-,N/A,,Mostly Cloudy,90,2013-10-29 01:52:00
10:52 PM,61.0,55.0,81,30.27,10.0,East,3.5,-,N/A,,Mostly Cloudy,100,2013-10-29 02:52:00
11:52 PM,59.0,55.0,87,30.27,10.0,East,4.6,-,N/A,,Scattered Clouds,80,2013-10-29 03:52:00